This is the latest recevied weather packets stored in our database for station/object DL9LA-13. If no packets are shown the sender has not sent any weather packets the latest 10 day(s).
| Time | Temp. | Humidity | Pressure | Rain* | Wind** | Luminosity | Snow |
|---|---|---|---|---|---|---|---|
| 1777626006 | 15.56° C | 33% | 983 hPa | - | - | - | - |
| 1777625402 | 15° C | 33% | 983 hPa | - | - | - | - |
| 1777624799 | 15° C | 34% | 983 hPa | - | - | - | - |
| 1777623591 | 14.44° C | 36% | 983 hPa | - | - | - | - |
| 1777621177 | 12.78° C | 38% | 983 hPa | - | - | - | - |
| 1777619969 | 12.22° C | 38% | 983 hPa | - | - | - | - |
| 1777619366 | 12.22° C | 39% | 983 hPa | - | - | - | - |
| 1777617555 | 11.67° C | 38% | 983 hPa | - | - | - | - |
| 1777616951 | 11.67° C | 37% | 983 hPa | - | - | - | - |
| 1777615140 | 14.44° C | 31% | 983 hPa | - | - | - | - |
| 1777613933 | 26.67° C | 18% | 983 hPa | - | - | - | - |
| 1777612726 | 23.89° C | 20% | 983 hPa | - | - | - | - |
| 1777611518 | 22.78° C | 23% | 983 hPa | - | - | - | - |
| 1777607897 | 5.56° C | 48% | 983 hPa | - | - | - | - |
| 1777606689 | 6.11° C | 47% | 982 hPa | - | - | - | - |
| 1777605482 | 5° C | 49% | 982 hPa | - | - | - | - |
| 1777604275 | 5.56° C | 47% | 983 hPa | - | - | - | - |
| 1777601256 | 6.11° C | 44% | 983 hPa | - | - | - | - |
| 1777600049 | 6.67° C | 44% | 983 hPa | - | - | - | - |
| 1777599446 | 7.22° C | 42% | 983 hPa | - | - | - | - |
| 1777597031 | 7.78° C | 39% | 983 hPa | - | - | - | - |
| 1777595824 | 7.78° C | 38% | 983 hPa | - | - | - | - |
| 1777595220 | 8.33° C | 39% | 983 hPa | - | - | - | - |
| 1777592806 | 7.22° C | 39% | 983 hPa | - | - | - | - |
| 1777592202 | 7.78° C | 39% | 983 hPa | - | - | - | - |
* Rain since midnight (hover to see other rain measurements)
** Current wind speed in m/s (hover to see current wind gust speed)